Weather History for New Iberia, LA

Change the Weather History Date:

Thursday, November 1, 2012

  Actual Average Record
Temperature  
Mean Temperature 71 °F 65 °F  
Max Temperature 85 °F 77 °F 85 °F (1998)
Min Temperature 56 °F 54 °F 31 °F (1993)
Degree Days  
Heating Degree Days 0 3  
Month to date heating degree days 0 3  
Since 1 July heating degree days 42 37  
Cooling Degree Days 6 3  
Month to date cooling degree days 6 3  
Year to date cooling degree days 3201 2748  
Growing Degree Days 20 (Base 50)    
Moisture  
Dew Point 59 °F    
Average Humidity 69    
Maximum Humidity 100    
Minimum Humidity 37    
Precipitation  
Precipitation 0.00 in 0.09 in 2.36 in (2010)
Month to date precipitation 0.00 0.09  
Year to date precipitation 46.57 50.53  
Sea Level Pressure  
Sea Level Pressure 30.03 in    
Wind  
Wind Speed 4 mph (West)    
Max Wind Speed 13 mph    
Max Gust Speed 15 mph    
Visibility 4 miles    
Events Fog    
T = Trace of Precipitation, MM = Missing Value Source: NWS Daily Summary

Daily Weather History Graph

Daily Weather History Graph

Search for Another Location

Airport:

Trip Planner

Search our weather history database for the weather conditions in past years. The results will help you decide how hot, cold, wet, or windy it might be!

Date:

Astronomy

Nov. 01, 2012 Rise Set
Actual Time 7:21 AM CDT 6:19 PM CDT
Civil Twilight 6:57 AM CDT 6:44 PM CDT
Nautical Twilight 6:28 AM CDT 7:12 PM CDT
Astronomical Twilight 6:00 AM CDT 7:41 PM CDT
Moon 8:26 PM CDT 9:45 AM CDT
Length of Visible Light 11h 47m
Length of Day
10h 58m
Waning Gibbous, 93% of the Moon is Illuminated
Nov 1
Waning Gibbous
Nov 6
Last Quarter
Nov 13
New
Nov 20
First Quarter
Nov 28
Full

Hourly Weather History & Observations

Time (CDT) Temp. Heat Index Dew Point Humidity Pressure Visibility Wind Dir Wind Speed Gust Speed Precip Events Conditions
12:22 AM 62.6 °F - 59.0 °F 88% 30.03 in 2.5 mi Calm Calm - N/A   Clear
12:47 AM 59.0 °F - 57.2 °F 94% 30.03 in 0.8 mi Calm Calm - N/A   Mist
12:53 AM 57.9 °F - 57.0 °F 97% 30.02 in 0.2 mi SSW 3.5 mph - N/A Fog Fog
1:11 AM 60.8 °F - 57.2 °F 88% 30.02 in 1.0 mi WSW 6.9 mph - N/A   Mist
1:14 AM 60.8 °F - 57.2 °F 88% 30.02 in 3.0 mi WSW 5.8 mph - N/A   Partly Cloudy
1:53 AM 63.0 °F - 61.0 °F 93% 30.02 in 10.0 mi West 3.5 mph - N/A   Clear
2:53 AM 61.0 °F - 57.9 °F 90% 30.02 in 3.0 mi West 4.6 mph - N/A   Clear
3:38 AM 62.6 °F - 60.8 °F 94% 30.02 in 1.8 mi NW 4.6 mph - N/A   Clear
3:47 AM 62.6 °F - 60.8 °F 94% 30.03 in 0.5 mi North 3.5 mph - N/A Fog Fog
3:53 AM 61.0 °F - 59.0 °F 93% 30.02 in 0.5 mi Calm Calm - N/A Fog Fog
4:04 AM 60.8 °F - 59.0 °F 94% 30.02 in 0.2 mi North 3.5 mph - N/A Fog Fog
4:53 AM 59.0 °F - 57.9 °F 96% 30.03 in 0.2 mi Calm Calm - N/A Fog Fog
5:00 AM 57.2 °F - 57.2 °F 100% 30.03 in 0.2 mi Calm Calm - N/A Fog Fog
5:53 AM 57.9 °F - 57.0 °F 97% 30.04 in 0.2 mi Calm Calm - N/A Fog Fog
6:27 AM 57.2 °F - 55.4 °F 94% 30.04 in 0.5 mi Calm Calm - N/A Fog Fog
6:44 AM 57.2 °F - 55.4 °F 94% 30.05 in 0.2 mi Calm Calm - N/A Fog Fog
6:51 AM 55.4 °F - 53.6 °F 94% 30.05 in 0.5 mi Calm Calm - N/A Fog Fog
6:53 AM 55.9 °F - 54.0 °F 93% 30.05 in 0.5 mi Calm Calm - N/A Fog Fog
7:11 AM 57.2 °F - 53.6 °F 88% 30.05 in 0.2 mi Calm Calm - N/A Fog Fog
7:53 AM 55.9 °F - 55.0 °F 97% 30.05 in 0.2 mi Calm Calm - N/A Fog Fog
8:25 AM 60.8 °F - 59.0 °F 94% 30.06 in 0.5 mi Calm Calm - N/A Fog Fog
8:32 AM 60.8 °F - 60.8 °F 100% 30.06 in 1.2 mi Calm Calm - N/A   Overcast
8:37 AM 62.6 °F - 60.8 °F 94% 30.06 in 3.0 mi Calm Calm - N/A   Overcast
8:53 AM 63.0 °F - 61.0 °F 93% 30.07 in 7.0 mi Calm Calm - N/A   Scattered Clouds
9:53 AM 71.1 °F - 64.9 °F 81% 30.09 in 10.0 mi WNW 5.8 mph - N/A   Clear
10:53 AM 75.0 °F - 66.0 °F 73% 30.09 in 10.0 mi Calm Calm - N/A   Clear
11:53 AM 79.0 °F - 64.9 °F 62% 30.07 in 10.0 mi NW 3.5 mph - N/A   Clear
12:53 PM 82.0 °F 83.1 °F 63.0 °F 52% 30.05 in 10.0 mi WNW 10.4 mph - N/A   Clear
1:53 PM 82.9 °F 83.2 °F 60.1 °F 46% 30.02 in - NW 10.4 mph - N/A   Clear
2:53 PM 84.0 °F 83.5 °F 57.9 °F 41% 30.00 in 10.0 mi WNW 5.8 mph - N/A   Clear
3:53 PM 84.0 °F 83.0 °F 55.9 °F 38% 29.99 in 10.0 mi WSW 5.8 mph - N/A   Clear
4:53 PM 84.0 °F 83.0 °F 55.9 °F 38% 29.99 in 9.0 mi West 8.1 mph - N/A   Clear
5:53 PM 80.1 °F 80.6 °F 57.9 °F 47% 29.99 in 10.0 mi West 3.5 mph - N/A   Clear
6:53 PM 73.0 °F - 59.0 °F 61% 30.00 in 10.0 mi SSW 4.6 mph - N/A   Clear
7:53 PM 69.1 °F - 57.9 °F 68% 30.01 in 10.0 mi SW 3.5 mph - N/A   Clear
8:53 PM 66.9 °F - 60.1 °F 79% 30.03 in 10.0 mi SW 4.6 mph - N/A   Clear
9:53 PM 64.9 °F - 60.1 °F 84% 30.04 in 9.0 mi Calm Calm - N/A   Clear
10:53 PM 66.9 °F - 64.0 °F 90% 30.04 in 6.0 mi SW 4.6 mph - N/A   Clear
11:18 PM 66.2 °F - 64.4 °F 94% 30.04 in 2.5 mi SSW 4.6 mph - N/A   Clear
11:41 PM 66.2 °F - 64.4 °F 94% 30.04 in 1.8 mi SSW 4.6 mph - N/A   Partly Cloudy
11:47 PM 66.2 °F - 64.4 °F 94% 30.04 in 0.8 mi SW 4.6 mph - N/A   Mist
11:53 PM 66.9 °F - 64.9 °F 93% 30.04 in 0.2 mi SW 4.6 mph - N/A Fog Fog